Weather in Ninotsminda

Georgia     41°15′57″N   43°35′23″E
temp.,
°C
wind,
m/s
gust,
m/s
humid.,
%
clouds,
%
prec.,
mm/h
press.,
hPa
HPBL,
m
6 may, thu
thu601:00+2se228941 0.0 101626
04:00+1sse22905 0.0 101628
07:00+2sse338612 0.0 1016121
10:00+9s236222 0.0 10131196
13:00+12wsw23435 0.0 10111994
16:00+13wsw244190 0.2 10102098
19:00+10s336394 0.2 1011184
22:00+6e0080100 0.2 101410
7 may, fri
fri701:00+5ene1182100 0.0 101512
04:00+5n1283100 0.0 101571
07:00+4nnw1285100 0.0 1017151
10:00+7nnw3377100 0.0 1017688
13:00+10nnw4363100 0.1 10151227
16:00+11nnw445892 0.3 10151483
19:00+8nnw237325 0.1 1017357
22:00+4se00893 0.1 101910
8 may, sat
sat801:00+3se11910 0.0 102010
04:00+3sse22870 0.0 102018
07:00+4sse33812 0.0 101968
10:00+12s23545 0.0 1016903
13:00+16sw124190 0.0 10141714
16:00+16ssw344199 0.0 10132242
19:00+13s3463100 0.3 101491
22:00+7s228210 1.4 101720
9 may, sun
sun901:00+7s328291 0.3 101725
04:00+6s33865 0.4 101544
07:00+7s3483100 0.0 101483
10:00+13sw245898 0.0 1011912
13:00+9nnw8888100 2.1 1012763
16:00+5nnw359498 13.8 1015410
19:00+4nnw4692100 0.3 1016558
22:00+1nw469897 0.7 1020327
10 may, mon
mon1001:000nw4699100 0.7 1019297
04:00−2nw3694100 3.1 1022541
07:00−4wnw24929 0.4 1024237
10:000nw576969 0.5 10211362
13:00+2nnw465696 0.1 10201615
16:00+3nnw455475 0.1 10191373
19:00+1nnw436614 0.0 1020656
22:00−4n119848 0.0 102412